This is the latest recevied weather packets stored in our database for station/object KC5TIL. If no packets are shown the sender has not sent any weather packets the latest 10 day(s).
| Time | Temp. | Humidity | Pressure | Rain* | Wind** | Luminosity | Snow |
|---|---|---|---|---|---|---|---|
| 1777562660 | 16.67° C | 86% | 1017.9 hPa | 0 mm | - | 12 W/m² | - |
| 1777562355 | 17.22° C | 86% | 1017.9 hPa | 0 mm | - | 12 W/m² | - |
| 1777562050 | 17.22° C | 85% | 1017.9 hPa | 0 mm | - | 18 W/m² | - |
| 1777561747 | 17.22° C | 85% | 1017.3 hPa | 0 mm | - | 26 W/m² | - |
| 1777561443 | 17.22° C | 85% | 1017.4 hPa | 0 mm | - | 19 W/m² | - |
| 1777561138 | 17.22° C | 85% | 1017 hPa | 0 mm | - | 20 W/m² | - |
| 1777560833 | 17.22° C | 84% | 1016.9 hPa | 0 mm | - | 23 W/m² | - |
| 1777560531 | 17.22° C | 85% | 1017 hPa | 0 mm | - | 28 W/m² | - |
| 1777560229 | 17.22° C | 84% | 1016.7 hPa | 0 mm | - | 42 W/m² | - |
| 1777559925 | 17.22° C | 84% | 1016.5 hPa | 0 mm | - | 62 W/m² | - |
| 1777559620 | 17.22° C | 84% | 1016.5 hPa | 0 mm | - | 79 W/m² | - |
| 1777559319 | 17.22° C | 84% | 1016.3 hPa | 0 mm | - | 73 W/m² | - |
| 1777559014 | 17.22° C | 85% | 1016.3 hPa | 0 mm | - | 73 W/m² | - |
| 1777558710 | 17.22° C | 84% | 1016.6 hPa | 0 mm | - | 63 W/m² | - |
| 1777558406 | 17.22° C | 84% | 1016.4 hPa | 0 mm | - | 63 W/m² | - |
| 1777558102 | 17.22° C | 84% | 1016.4 hPa | 0 mm | - | 83 W/m² | - |
| 1777557799 | 17.22° C | 84% | 1016.6 hPa | 0 mm | - | 51 W/m² | - |
| 1777557496 | 17.22° C | 85% | 1016.4 hPa | 0 mm | - | 65 W/m² | - |
| 1777557192 | 17.22° C | 85% | 1016 hPa | 0 mm | - | 59 W/m² | - |
| 1777556888 | 16.67° C | 85% | 1015.8 hPa | 0 mm | - | 62 W/m² | - |
| 1777556584 | 16.67° C | 85% | 1015.8 hPa | 0 mm | - | 65 W/m² | - |
| 1777556284 | 16.67° C | 85% | 1015.7 hPa | 0 mm | - | 76 W/m² | - |
| 1777555980 | 16.67° C | 86% | 1015.6 hPa | 0 mm | - | 92 W/m² | - |
| 1777555675 | 16.67° C | 85% | 1015.3 hPa | 0 mm | - | 82 W/m² | - |
| 1777555372 | 16.67° C | 86% | 1015.5 hPa | 0 mm | - | 52 W/m² | - |
* Rain latest hour (hover to see other rain measurements)
** Current wind speed in m/s (hover to see current wind gust speed)